Time,TemperatureF,DewpointF,PressureIn,WindDirection,WindDirectionDegrees,WindSpeedMPH,WindSpeedGustMPH,Humidity,HourlyPrecipIn,Conditions,Clouds,dailyrainin,SoftwareType,DateUTC
2013-05-20 10:44:00,-999.0,-99.9,0.00,North,-999,-999.0,-999.0,-999,0.00,,,0.00,weatherlink.com 1.10,2013-05-20 15:44:00,
2013-05-20 10:59:00,-999.0,-99.9,29.64,North,-999,-999.0,-999.0,-999,0.00,,,0.00,weatherlink.com 1.10,2013-05-20 15:59:00,
2013-05-20 11:14:00,72.8,63.0,29.63,SW,225,3.0,14.0,71,0.00,,,0.00,weatherlink.com 1.10,2013-05-20 16:14:00,
2013-05-20 11:29:00,73.8,62.0,29.63,SSW,211,4.0,16.0,67,0.00,,,0.00,weatherlink.com 1.10,2013-05-20 16:29:00,
2013-05-20 11:44:00,74.9,62.0,29.62,South,174,2.0,8.0,64,0.00,,,0.00,weatherlink.com 1.10,2013-05-20 16:44:00,
2013-05-20 11:59:00,75.5,61.0,29.62,SSE,157,6.0,13.0,60,0.00,,,0.00,weatherlink.com 1.10,2013-05-20 16:59:00,
2013-05-20 12:14:00,76.3,60.0,29.61,SW,215,7.0,14.0,58,0.00,,,0.00,weatherlink.com 1.10,2013-05-20 17:14:00,
2013-05-20 12:30:00,76.7,59.0,29.61,SW,232,7.0,14.0,55,0.00,,,0.00,weatherlink.com 1.10,2013-05-20 17:30:00,
2013-05-20 12:45:00,77.9,59.0,29.61,SW,217,13.0,17.0,52,0.00,,,0.00,weatherlink.com 1.10,2013-05-20 17:45:00,
2013-05-20 13:00:00,78.9,59.0,29.61,SW,226,12.0,17.0,51,0.00,,,0.00,weatherlink.com 1.10,2013-05-20 18:00:00,
2013-05-20 13:15:00,80.1,59.0,29.60,WSW,239,6.0,13.0,48,0.00,,,0.00,weatherlink.com 1.10,2013-05-20 18:15:00,
2013-05-20 13:30:00,80.6,60.0,29.60,SW,227,9.0,15.0,49,0.00,,,0.00,weatherlink.com 1.10,2013-05-20 18:30:00,
2013-05-20 13:45:00,80.5,58.0,29.60,South,189,4.0,18.0,47,0.00,,,0.00,weatherlink.com 1.10,2013-05-20 18:45:00,
2013-05-20 14:00:00,82.0,58.0,29.60,WSW,249,19.0,20.0,44,0.00,,,0.00,weatherlink.com 1.10,2013-05-20 19:00:00,
2013-05-20 14:15:00,81.2,58.0,29.59,SW,227,13.0,22.0,46,0.00,,,0.00,weatherlink.com 1.10,2013-05-20 19:15:00,
2013-05-20 14:30:00,81.7,58.0,29.59,SSW,213,11.0,21.0,45,0.00,,,0.00,weatherlink.com 1.10,2013-05-20 19:30:00,
2013-05-20 14:45:00,82.0,59.0,29.59,SSW,213,11.0,20.0,45,0.00,,,0.00,weatherlink.com 1.10,2013-05-20 19:45:00,
2013-05-20 15:00:00,81.3,58.0,29.59,WSW,238,14.0,28.0,45,0.00,,,0.00,weatherlink.com 1.10,2013-05-20 20:00:00,
2013-05-20 15:15:00,81.8,59.0,29.59,SW,232,20.0,24.0,46,0.00,,,0.00,weatherlink.com 1.10,2013-05-20 20:15:00,
2013-05-20 15:30:00,81.5,59.0,29.59,WSW,258,9.0,26.0,47,0.00,,,0.00,weatherlink.com 1.10,2013-05-20 20:30:00,
2013-05-20 15:45:00,82.2,59.0,29.59,SW,217,10.0,22.0,46,0.00,,,0.00,weatherlink.com 1.10,2013-05-20 20:45:00,
2013-05-20 16:00:00,81.5,60.0,29.58,SSW,206,12.0,25.0,48,0.00,,,0.00,weatherlink.com 1.10,2013-05-20 21:00:00,
2013-05-20 16:15:00,81.3,60.0,29.58,SW,223,10.0,22.0,49,0.00,,,0.00,weatherlink.com 1.10,2013-05-20 21:15:00,
2013-05-20 16:30:00,81.4,60.0,29.58,SSW,202,3.0,23.0,48,0.00,,,0.00,weatherlink.com 1.10,2013-05-20 21:30:00,
2013-05-20 16:45:00,81.6,59.0,29.58,SW,235,8.0,22.0,47,0.00,,,0.00,weatherlink.com 1.10,2013-05-20 21:45:00,
2013-05-20 17:00:00,81.4,60.0,29.58,West,260,7.0,27.0,48,0.00,,,0.00,weatherlink.com 1.10,2013-05-20 22:00:00,
2013-05-20 17:15:00,81.7,59.0,29.58,SW,229,9.0,24.0,47,0.00,,,0.00,weatherlink.com 1.10,2013-05-20 22:15:00,
2013-05-20 17:30:00,82.5,60.0,29.58,SSW,202,9.0,17.0,46,0.00,,,0.00,weatherlink.com 1.10,2013-05-20 22:30:00,
2013-05-20 17:45:00,81.2,59.0,29.58,SW,232,11.0,18.0,47,0.00,,,0.00,weatherlink.com 1.10,2013-05-20 22:45:00,
2013-05-20 18:00:00,81.7,59.0,29.58,WSW,245,7.0,16.0,47,0.00,,,0.00,weatherlink.com 1.10,2013-05-20 23:00:00,
2013-05-20 18:15:00,82.5,58.0,29.57,WSW,241,8.0,17.0,44,0.00,,,0.00,weatherlink.com 1.10,2013-05-20 23:15:00,
2013-05-20 18:30:00,82.3,59.0,29.58,WSW,239,4.0,17.0,45,0.00,,,0.00,weatherlink.com 1.10,2013-05-20 23:30:00,
2013-05-20 18:45:00,81.6,59.0,29.58,SSW,206,5.0,17.0,46,0.00,,,0.00,weatherlink.com 1.10,2013-05-20 23:45:00,
2013-05-20 19:00:00,81.6,58.0,29.59,SW,217,3.0,11.0,45,0.00,,,0.00,weatherlink.com 1.10,2013-05-21 00:00:00,
2013-05-20 19:15:00,81.7,58.0,29.59,NE,46,2.0,15.0,45,0.00,,,0.00,weatherlink.com 1.10,2013-05-21 00:15:00,
2013-05-20 19:30:00,81.7,58.0,29.58,NW,304,5.0,10.0,44,0.00,,,0.00,weatherlink.com 1.10,2013-05-21 00:30:00,
2013-05-20 19:45:00,81.3,58.0,29.58,West,261,1.0,11.0,45,0.00,,,0.00,weatherlink.com 1.10,2013-05-21 00:45:00,
2013-05-20 20:00:00,80.7,59.0,29.59,North,5,1.0,6.0,47,0.00,,,0.00,weatherlink.com 1.10,2013-05-21 01:00:00,
2013-05-20 20:15:00,79.7,59.0,29.59,NNW,337,2.0,4.0,49,0.00,,,0.00,weatherlink.com 1.10,2013-05-21 01:15:00,
2013-05-20 20:30:00,78.6,59.0,29.59,NNW,329,1.0,6.0,51,0.00,,,0.00,weatherlink.com 1.10,2013-05-21 01:30:00,
2013-05-20 20:45:00,77.5,59.0,29.59,West,281,1.0,3.0,53,0.00,,,0.00,weatherlink.com 1.10,2013-05-21 01:45:00,
2013-05-20 21:00:00,76.8,59.0,29.60,West,281,1.0,3.0,55,0.00,,,0.00,weatherlink.com 1.10,2013-05-21 02:00:00,
2013-05-20 21:15:00,76.4,59.0,29.59,West,281,0.0,1.0,55,0.00,,,0.00,weatherlink.com 1.10,2013-05-21 02:15:00,
2013-05-20 21:30:00,76.0,61.0,29.60,West,281,1.0,2.0,59,0.00,,,0.00,weatherlink.com 1.10,2013-05-21 02:30:00,
2013-05-20 21:45:00,74.8,60.0,29.61,West,281,1.0,2.0,61,0.00,,,0.00,weatherlink.com 1.10,2013-05-21 02:45:00,
2013-05-20 22:00:00,74.3,60.0,29.60,WSW,252,0.0,3.0,62,0.00,,,0.00,weatherlink.com 1.10,2013-05-21 03:00:00,
2013-05-20 22:15:00,73.9,60.0,29.60,SW,230,0.0,2.0,63,0.00,,,0.00,weatherlink.com 1.10,2013-05-21 03:15:00,
2013-05-20 22:30:00,73.6,60.0,29.59,SSE,159,2.0,5.0,62,0.00,,,0.00,weatherlink.com 1.10,2013-05-21 03:30:00,
2013-05-20 22:45:00,73.5,60.0,29.59,SSE,161,4.0,8.0,63,0.00,,,0.00,weatherlink.com 1.10,2013-05-21 03:45:00,
2013-05-20 23:00:00,73.1,61.0,29.58,SSE,163,4.0,6.0,65,0.00,,,0.00,weatherlink.com 1.10,2013-05-21 04:00:00,
2013-05-20 23:15:00,72.7,61.0,29.58,SSE,160,2.0,3.0,67,0.00,,,0.00,weatherlink.com 1.10,2013-05-21 04:15:00,
2013-05-20 23:30:00,72.0,62.0,29.57,South,169,3.0,4.0,70,0.00,,,0.00,weatherlink.com 1.10,2013-05-21 04:30:00,
2013-05-20 23:45:00,73.4,63.0,29.56,SSE,166,2.0,4.0,69,0.00,,,0.00,weatherlink.com 1.10,2013-05-21 04:45:00,